DAL1547 KMSY-KATL

Flight info

Callsign DAL1547
Flight time 1h 3m
Altitude 29000
Route GARTS PAYTN SHYRE HOBTT3
Aircraft B738/M-SDE2E3FGHIRWXY/LB1

Departure

Time 2026-05-05 01:50
Airport Louis Armstrong New Orleans International Airport (KMSY)

Arrival

Time 2026-05-05 02:53
Airport Hartsfield Jackson Atlanta International Airport (KATL)
Time Latitude Longitude Altitude Speed Heading
2026-05-05 01:29 29.98812 -90.25684 13 ft 0 kts 353°
2026-05-05 01:42 29.98813 -90.25684 13 ft 0 kts 353°
2026-05-05 01:42 29.98814 -90.25682 13 ft 0 kts 14°
2026-05-05 01:43 29.98828 -90.25678 14 ft 6 kts 14°
2026-05-05 01:43 29.98854 -90.25664 13 ft 6 kts 26°
2026-05-05 01:43 29.98875 -90.25659 14 ft 0 kts
2026-05-05 01:44 29.98889 -90.25663 14 ft 6 kts 338°
2026-05-05 01:44 29.98926 -90.25697 14 ft 14 kts 313°
2026-05-05 01:44 29.98973 -90.25843 12 ft 24 kts 283°
2026-05-05 01:45 29.99022 -90.26037 12 ft 25 kts 285°
2026-05-05 01:45 29.99065 -90.26225 10 ft 24 kts 285°
2026-05-05 01:45 29.99111 -90.26402 12 ft 23 kts 285°
2026-05-05 01:45 29.99153 -90.26574 11 ft 22 kts 285°
2026-05-05 01:46 29.99191 -90.26742 11 ft 21 kts 287°
2026-05-05 01:46 29.99232 -90.26905 13 ft 21 kts 285°
2026-05-05 01:46 29.99268 -90.27063 12 ft 20 kts 283°
2026-05-05 01:46 29.99304 -90.27215 11 ft 19 kts 286°
2026-05-05 01:47 29.99345 -90.27373 8 ft 23 kts 286°
2026-05-05 01:47 29.99393 -90.27577 8 ft 29 kts 284°
2026-05-05 01:47 29.99444 -90.27791 8 ft 27 kts 286°
2026-05-05 01:47 29.99493 -90.27991 11 ft 25 kts 287°
2026-05-05 01:48 29.99541 -90.28159 14 ft 16 kts 308°
2026-05-05 01:48 29.99565 -90.28178 12 ft 0 kts 339°
2026-05-05 01:49 29.99570 -90.28180 12 ft 3 kts 338°
2026-05-05 01:49 29.99617 -90.28176 12 ft 12 kts 16°
2026-05-05 01:49 29.99644 -90.28081 13 ft 15 kts 110°
2026-05-05 01:50 29.99597 -90.27884 10 ft 52 kts 105°
2026-05-05 01:50 29.99416 -90.27148 13 ft 134 kts 106°
2026-05-05 01:50 29.99109 -90.25881 274 ft 181 kts 106°
2026-05-05 01:50 29.98823 -90.24462 1353 ft 179 kts 104°
2026-05-05 01:51 29.98740 -90.23094 2600 ft 169 kts 85°
2026-05-05 01:51 29.99327 -90.21886 3345 ft 185 kts 46°
2026-05-05 01:51 30.00336 -90.20772 3687 ft 217 kts 45°
2026-05-05 01:51 30.01467 -90.19477 3924 ft 242 kts 46°
2026-05-05 01:52 30.02644 -90.18048 4411 ft 255 kts 47°
2026-05-05 01:52 30.03877 -90.16467 4873 ft 271 kts 48°
2026-05-05 01:52 30.05132 -90.14777 5633 ft 279 kts 48°
2026-05-05 01:52 30.06385 -90.13028 6460 ft 288 kts 48°
2026-05-05 01:53 30.07657 -90.11195 7231 ft 294 kts 49°
2026-05-05 01:53 30.08919 -90.09326 8146 ft 296 kts 49°
2026-05-05 01:53 30.10174 -90.07433 9027 ft 299 kts 49°
2026-05-05 01:53 30.11437 -90.05503 9894 ft 303 kts 49°
2026-05-05 01:54 30.12719 -90.03531 10501 ft 316 kts 49°
2026-05-05 01:54 30.14094 -90.01414 10694 ft 342 kts 49°
2026-05-05 01:54 30.15560 -89.99144 11059 ft 359 kts 49°
2026-05-05 01:54 30.17063 -89.96798 11737 ft 365 kts 49°
2026-05-05 01:55 30.18559 -89.94450 12508 ft 368 kts 49°
2026-05-05 01:55 30.20085 -89.92051 13241 ft 372 kts 49°
2026-05-05 01:55 30.21629 -89.89624 13932 ft 376 kts 49°
2026-05-05 01:55 30.23188 -89.87172 14551 ft 381 kts 49°
2026-05-05 01:56 30.24768 -89.84685 15187 ft 385 kts 49°
2026-05-05 01:56 30.26363 -89.82175 15835 ft 389 kts 49°
2026-05-05 01:56 30.27953 -89.79671 16446 ft 393 kts 49°
2026-05-05 01:56 30.29582 -89.77108 17055 ft 397 kts 48°
2026-05-05 01:57 30.31228 -89.74519 17672 ft 401 kts 48°
2026-05-05 01:57 30.32889 -89.71902 18279 ft 405 kts 48°
2026-05-05 01:57 30.34567 -89.69254 18799 ft 410 kts 48°
2026-05-05 01:57 30.36261 -89.66574 19293 ft 414 kts 48°
2026-05-05 01:58 30.37969 -89.63869 19804 ft 418 kts 48°
2026-05-05 01:58 30.39695 -89.61138 20316 ft 422 kts 47°
2026-05-05 01:58 30.41439 -89.58375 20817 ft 426 kts 47°
2026-05-05 01:58 30.43198 -89.55589 21321 ft 430 kts 47°
2026-05-05 01:59 30.44971 -89.52778 21838 ft 434 kts 47°
2026-05-05 01:59 30.46765 -89.49933 22315 ft 438 kts 47°
2026-05-05 01:59 30.48549 -89.47101 22793 ft 442 kts 47°
2026-05-05 01:59 30.50367 -89.44213 23249 ft 446 kts 47°
2026-05-05 02:00 30.52204 -89.41292 23685 ft 450 kts 47°
2026-05-05 02:00 30.54055 -89.38347 24075 ft 452 kts 47°
2026-05-05 02:00 30.55909 -89.35393 24508 ft 454 kts 46°
2026-05-05 02:00 30.57767 -89.32430 24952 ft 455 kts 46°
2026-05-05 02:01 30.59635 -89.29451 25366 ft 457 kts 46°
2026-05-05 02:01 30.61508 -89.26461 25787 ft 458 kts 45°
2026-05-05 02:01 30.63385 -89.23462 26339 ft 456 kts 45°
2026-05-05 02:01 30.65215 -89.20531 26954 ft 452 kts 45°
2026-05-05 02:02 30.67014 -89.17647 27553 ft 449 kts 44°
2026-05-05 02:02 30.68839 -89.14723 28115 ft 446 kts 43°
2026-05-05 02:02 30.70659 -89.11807 28688 ft 444 kts 43°
2026-05-05 02:02 30.72480 -89.08889 29052 ft 446 kts 43°
2026-05-05 02:03 30.76140 -89.03030 29035 ft 445 kts 43°
2026-05-05 02:03 30.79721 -88.97267 29051 ft 442 kts 43°
2026-05-05 02:04 30.83340 -88.91453 29048 ft 444 kts 43°
2026-05-05 02:04 30.86961 -88.85620 29041 ft 445 kts 43°
2026-05-05 02:05 30.90586 -88.79767 29041 ft 445 kts 43°
2026-05-05 02:05 30.94200 -88.73921 29036 ft 443 kts 43°
2026-05-05 02:06 30.97779 -88.68126 29047 ft 442 kts 43°
2026-05-05 02:06 31.01372 -88.62302 29044 ft 442 kts 43°
2026-05-05 02:07 31.04952 -88.56488 29052 ft 441 kts 43°
2026-05-05 02:07 31.08527 -88.50677 29047 ft 441 kts 43°
2026-05-05 02:08 31.12112 -88.44863 29044 ft 441 kts 43°
2026-05-05 02:08 31.15697 -88.39095 29050 ft 441 kts 43°
2026-05-05 02:09 31.19301 -88.33289 29046 ft 442 kts 43°
2026-05-05 02:09 31.22686 -88.27819 29049 ft 442 kts 43°
2026-05-05 02:10 31.26295 -88.21976 29044 ft 443 kts 43°
2026-05-05 02:10 31.29902 -88.16127 29047 ft 443 kts 43°
2026-05-05 02:11 31.33509 -88.10268 29036 ft 444 kts 43°
2026-05-05 02:11 31.37099 -88.04428 29039 ft 444 kts 43°
2026-05-05 02:12 31.42510 -87.95619 29032 ft 444 kts 43°
2026-05-05 02:13 31.46113 -87.89735 29040 ft 445 kts 43°
2026-05-05 02:13 31.49712 -87.83819 29044 ft 446 kts 44°
2026-05-05 02:14 31.53290 -87.77876 29036 ft 446 kts 44°
2026-05-05 02:14 31.56860 -87.71966 29033 ft 447 kts 44°
2026-05-05 02:15 31.60455 -87.66003 29027 ft 447 kts 44°
2026-05-05 02:15 31.64036 -87.60049 29025 ft 446 kts 44°
2026-05-05 02:16 31.67607 -87.54070 29028 ft 447 kts 45°
2026-05-05 02:16 31.71158 -87.48121 29028 ft 447 kts 45°
2026-05-05 02:17 31.74732 -87.42141 29021 ft 448 kts 45°
2026-05-05 02:17 31.78306 -87.36152 29006 ft 448 kts 45°
2026-05-05 02:18 31.81881 -87.30153 28988 ft 448 kts 45°
2026-05-05 02:18 31.85457 -87.24143 28978 ft 448 kts 45°
2026-05-05 02:19 31.89011 -87.18159 28958 ft 448 kts 45°
2026-05-05 02:19 31.92578 -87.12145 28944 ft 448 kts 46°
2026-05-05 02:20 31.96148 -87.06115 28927 ft 448 kts 46°
2026-05-05 02:20 31.99711 -87.00088 28922 ft 448 kts 46°
2026-05-05 02:21 32.03271 -86.94056 28934 ft 448 kts 46°
2026-05-05 02:21 32.06815 -86.88042 28939 ft 449 kts 46°
2026-05-05 02:22 32.10377 -86.81988 28946 ft 449 kts 46°
2026-05-05 02:22 32.13935 -86.75932 28943 ft 449 kts 46°
2026-05-05 02:23 32.17492 -86.69868 28951 ft 449 kts 46°
2026-05-05 02:23 32.21050 -86.63790 28980 ft 449 kts 46°
2026-05-05 02:24 32.24579 -86.57753 29009 ft 449 kts 46°
2026-05-05 02:24 32.28124 -86.51678 29029 ft 449 kts 46°
2026-05-05 02:25 32.31668 -86.45598 29039 ft 449 kts 46°
2026-05-05 02:25 32.35214 -86.39514 28991 ft 448 kts 46°
2026-05-05 02:26 32.38755 -86.33438 28990 ft 448 kts 47°
2026-05-05 02:26 32.42293 -86.27355 28993 ft 448 kts 47°
2026-05-05 02:27 32.45795 -86.21307 28998 ft 448 kts 47°
2026-05-05 02:27 32.49306 -86.15214 29000 ft 447 kts 47°
2026-05-05 02:28 32.52816 -86.09116 29012 ft 447 kts 47°
2026-05-05 02:28 32.56317 -86.03027 29002 ft 443 kts 47°
2026-05-05 02:29 32.59730 -85.97072 29010 ft 433 kts 47°
2026-05-05 02:29 32.63132 -85.91164 28945 ft 435 kts 47°
2026-05-05 02:29 32.64817 -85.88235 28584 ft 433 kts 48°
2026-05-05 02:30 32.66507 -85.85288 28178 ft 429 kts 48°
2026-05-05 02:30 32.68176 -85.82372 27787 ft 424 kts 49°
2026-05-05 02:30 32.69827 -85.79488 27367 ft 421 kts 49°
2026-05-05 02:30 32.71469 -85.76618 26951 ft 418 kts 49°
2026-05-05 02:31 32.73096 -85.73772 26549 ft 415 kts 49°
2026-05-05 02:31 32.74712 -85.70946 26148 ft 412 kts 50°
2026-05-05 02:31 32.76317 -85.68135 25739 ft 410 kts 50°
2026-05-05 02:31 32.77914 -85.65338 25336 ft 407 kts 50°
2026-05-05 02:32 32.79484 -85.62588 24942 ft 405 kts 51°
2026-05-05 02:32 32.81064 -85.59816 24543 ft 403 kts 51°
2026-05-05 02:32 32.82635 -85.57064 24126 ft 401 kts 51°
2026-05-05 02:32 32.84198 -85.54322 23731 ft 400 kts 52°
2026-05-05 02:33 32.85755 -85.51586 23266 ft 398 kts 52°
2026-05-05 02:33 32.87298 -85.48862 22832 ft 395 kts 52°
2026-05-05 02:33 32.88826 -85.46162 22421 ft 392 kts 53°
2026-05-05 02:33 32.90326 -85.43514 22011 ft 389 kts 53°
2026-05-05 02:34 32.91836 -85.40848 21615 ft 386 kts 53°
2026-05-05 02:34 32.93330 -85.38209 21220 ft 383 kts 53°
2026-05-05 02:34 32.94815 -85.35588 20847 ft 380 kts 53°
2026-05-05 02:34 32.96293 -85.32980 20464 ft 378 kts 53°
2026-05-05 02:35 32.97758 -85.30384 20082 ft 376 kts 53°
2026-05-05 02:35 32.98722 -85.28676 19827 ft 374 kts 53°
2026-05-05 02:35 33.00170 -85.26110 19459 ft 372 kts 53°
2026-05-05 02:35 33.02079 -85.22727 18945 ft 370 kts 53°
2026-05-05 02:36 33.03637 -85.20307 18575 ft 366 kts 46°
2026-05-05 02:36 33.05354 -85.18077 18191 ft 364 kts 44°
2026-05-05 02:36 33.06535 -85.16611 17903 ft 362 kts 44°
2026-05-05 02:36 33.08258 -85.14477 17465 ft 361 kts 44°
2026-05-05 02:37 33.09983 -85.12309 17062 ft 359 kts 45°
2026-05-05 02:37 33.11686 -85.10134 16668 ft 357 kts 45°
2026-05-05 02:37 33.13370 -85.07961 16285 ft 355 kts 46°
2026-05-05 02:37 33.15036 -85.05801 15908 ft 353 kts 46°
2026-05-05 02:38 33.16694 -85.03646 15528 ft 351 kts 46°
2026-05-05 02:38 33.18340 -85.01507 15153 ft 349 kts 46°
2026-05-05 02:38 33.19974 -84.99381 14783 ft 347 kts 46°
2026-05-05 02:38 33.21602 -84.97262 14413 ft 345 kts 46°
2026-05-05 02:39 33.23203 -84.95178 14052 ft 344 kts 46°
2026-05-05 02:39 33.24815 -84.93077 13644 ft 343 kts 46°
2026-05-05 02:39 33.26427 -84.90976 13252 ft 341 kts 47°
2026-05-05 02:39 33.28026 -84.88891 12881 ft 339 kts 47°
2026-05-05 02:40 33.29608 -84.86826 12511 ft 336 kts 47°
2026-05-05 02:40 33.31182 -84.84771 12141 ft 334 kts 47°
2026-05-05 02:40 33.32762 -84.82759 11887 ft 328 kts 44°
2026-05-05 02:40 33.34370 -84.80867 11695 ft 321 kts 43°
2026-05-05 02:41 33.35971 -84.79031 11509 ft 318 kts 43°
2026-05-05 02:41 33.37568 -84.77203 11327 ft 316 kts 43°
2026-05-05 02:41 33.39150 -84.75384 11146 ft 316 kts 43°
2026-05-05 02:41 33.40722 -84.73567 10960 ft 318 kts 43°
2026-05-05 02:42 33.42316 -84.71717 10788 ft 320 kts 43°
2026-05-05 02:42 33.43910 -84.69863 10581 ft 319 kts 43°
2026-05-05 02:42 33.45502 -84.68009 10399 ft 316 kts 44°
2026-05-05 02:42 33.47064 -84.66187 10197 ft 309 kts 44°
2026-05-05 02:43 33.48590 -84.64407 10014 ft 303 kts 44°
2026-05-05 02:43 33.50051 -84.62700 9936 ft 293 kts 44°
2026-05-05 02:43 33.51508 -84.60999 9665 ft 289 kts 44°
2026-05-05 02:43 33.52887 -84.59270 9463 ft 286 kts 55°
2026-05-05 02:44 33.53645 -84.57096 9296 ft 283 kts 81°
2026-05-05 02:44 33.53756 -84.54747 9158 ft 283 kts 91°
2026-05-05 02:44 33.53733 -84.52383 8978 ft 284 kts 92°
2026-05-05 02:44 33.53707 -84.50011 8804 ft 285 kts 92°
2026-05-05 02:45 33.53696 -84.47634 8642 ft 286 kts 91°
2026-05-05 02:45 33.53692 -84.45237 8472 ft 288 kts 91°
2026-05-05 02:45 33.53687 -84.42838 8293 ft 286 kts 91°
2026-05-05 02:45 33.53686 -84.40473 8122 ft 282 kts 91°
2026-05-05 02:46 33.53688 -84.38171 7956 ft 278 kts 91°
2026-05-05 02:46 33.53689 -84.35849 7715 ft 279 kts 91°
2026-05-05 02:46 33.53689 -84.33527 7465 ft 278 kts 92°
2026-05-05 02:46 33.53689 -84.31213 7231 ft 277 kts 92°
2026-05-05 02:47 33.53691 -84.28915 7018 ft 275 kts 92°
2026-05-05 02:47 33.53693 -84.27022 6819 ft 273 kts 92°
2026-05-05 02:47 33.53696 -84.24754 6581 ft 271 kts 92°
2026-05-05 02:47 33.53698 -84.22498 6332 ft 270 kts 92°
2026-05-05 02:48 33.53939 -84.20278 6008 ft 271 kts 68°
2026-05-05 02:48 33.55100 -84.18525 5546 ft 273 kts 34°
2026-05-05 02:48 33.56849 -84.17715 5191 ft 268 kts
2026-05-05 02:48 33.58635 -84.17900 5070 ft 250 kts 340°
2026-05-05 02:49 33.60136 -84.18782 4945 ft 235 kts 324°
2026-05-05 02:49 33.61466 -84.19876 4620 ft 228 kts 321°
2026-05-05 02:49 33.62668 -84.21090 4066 ft 225 kts 301°
2026-05-05 02:49 33.63121 -84.22802 3534 ft 213 kts 270°
2026-05-05 02:50 33.63184 -84.24531 3132 ft 204 kts 267°
2026-05-05 02:50 33.63200 -84.26177 3134 ft 195 kts 266°
2026-05-05 02:50 33.63197 -84.27797 3136 ft 193 kts 265°
2026-05-05 02:50 33.63193 -84.29418 2997 ft 196 kts 265°
2026-05-05 02:51 33.63191 -84.31030 2759 ft 189 kts 265°
2026-05-05 02:51 33.63190 -84.32564 2523 ft 178 kts 265°
2026-05-05 02:51 33.63189 -84.33998 2304 ft 166 kts 265°
2026-05-05 02:51 33.63189 -84.35332 2082 ft 161 kts 265°
2026-05-05 02:52 33.63185 -84.36672 1905 ft 156 kts 265°
2026-05-05 02:52 33.63183 -84.37952 1663 ft 152 kts 267°
2026-05-05 02:52 33.63181 -84.39223 1462 ft 153 kts 266°
2026-05-05 02:52 33.63179 -84.40499 1258 ft 152 kts 267°
2026-05-05 02:53 33.63183 -84.41750 1060 ft 151 kts 269°
2026-05-05 02:53 33.63170 -84.42951 1010 ft 128 kts 274°
2026-05-05 02:53 33.63182 -84.43761 1019 ft 72 kts 271°
2026-05-05 02:53 33.63207 -84.44098 1022 ft 30 kts 288°
2026-05-05 02:54 33.63290 -84.44260 1023 ft 4 kts 338°
2026-05-05 02:54 33.63320 -84.44257 1022 ft 5 kts 16°
2026-05-05 02:54 33.63368 -84.44225 1021 ft 12 kts 35°
2026-05-05 02:54 33.63452 -84.44192 1021 ft 13 kts 357°
2026-05-05 02:55 33.63542 -84.44194 1024 ft 13 kts 359°
2026-05-05 02:55 33.63628 -84.44183 1024 ft 12 kts 28°
2026-05-05 02:55 33.63662 -84.44092 1021 ft 12 kts 83°
2026-05-05 02:55 33.63667 -84.43985 1022 ft 14 kts 90°
2026-05-05 02:56 33.63664 -84.43863 1019 ft 15 kts 91°
2026-05-05 02:56 33.63662 -84.43740 1018 ft 14 kts 89°
2026-05-05 02:56 33.63664 -84.43623 1016 ft 14 kts 89°
2026-05-05 02:56 33.63665 -84.43493 1011 ft 18 kts 89°
2026-05-05 02:57 33.63667 -84.43331 1007 ft 20 kts 89°
2026-05-05 02:57 33.63664 -84.43164 1008 ft 20 kts 92°
2026-05-05 02:57 33.63661 -84.43004 1006 ft 19 kts 90°
2026-05-05 02:57 33.63663 -84.42903 1005 ft 8 kts 88°
2026-05-05 02:58 33.63665 -84.42839 1005 ft 8 kts 88°
2026-05-05 02:58 33.63666 -84.42777 1006 ft 7 kts 88°
2026-05-05 02:58 33.63665 -84.42717 1008 ft 7 kts 92°
2026-05-05 02:58 33.63661 -84.42659 1008 ft 7 kts 96°
2026-05-05 02:59 33.63668 -84.42610 1008 ft 5 kts 50°
2026-05-05 02:59 33.63703 -84.42600 1008 ft 5 kts 346°
2026-05-05 02:59 33.63719 -84.42631 1008 ft 5 kts 272°
2026-05-05 02:59 33.63705 -84.42690 1008 ft 11 kts 271°
2026-05-05 03:00 33.63751 -84.42762 1007 ft 12 kts 329°
2026-05-05 03:00 33.63820 -84.42803 1008 ft 11 kts 349°
2026-05-05 03:00 33.63897 -84.42808 1009 ft 11 kts
2026-05-05 03:00 33.64001 -84.42806 1010 ft 17 kts
2026-05-05 03:01 33.64119 -84.42806 1013 ft 17 kts 358°
2026-05-05 03:01 33.64233 -84.42808 1016 ft 16 kts
2026-05-05 03:01 33.64297 -84.42807 1018 ft 5 kts 348°
2026-05-05 03:01 33.64321 -84.42835 1019 ft 5 kts 301°
2026-05-05 03:02 33.64328 -84.42875 1021 ft 5 kts 271°